Flag for USA

Past Weather in Oceanside, California, USA — Yesterday and Last 2 Weeks

Now
65 °F

Clear.


Feels Like: 65 °F
Forecast: 77 / 61 °F
Wind: No wind

Location: Oceanside Weather Reporting Station
Current Time: Sep 25, 2020 at 8:29:38 pm
Latest Report: Sep 25, 2020 at 7:52 pm
Visibility: 10 mi
Pressure29.92 "Hg
Humidity: 94%
Dew Point: 63 °F
Location of OceansideLocation

Past Weather in Oceanside — Graph

°F

Oceanside Temperature Yesterday

Maximum temperature yesterday: 79 °F (at 10:52 am)
Minimum temperature yesterday: 58 °F (at 1:52 am)
Average temperature yesterday: 66 °F

High & Low Weather Summary for the Past Weeks

 TemperatureHumidityPressure
High90 °F (Sep 18, 1:52 pm)100% (Sep 10, 9:52 pm)30.04 "Hg (Sep 10, 9:52 pm)
Low51 °F (Sep 12, 6:52 am)24% (Sep 18, 10:52 am)29.80 "Hg (Sep 19, 4:52 pm)
Average66 °F84%29.92 "Hg
* Reported Sep 10 6:52 pm — Sep 25 6:52 pm, Oceanside. Weather by CustomWeather, © 2020

Note: Actual official high and low records may vary slightly from our data, if they occured in-between our weather recording intervals... More about our weather records

Oceanside Weather History for the Previous 24 Hours

Scroll right to see more
 ConditionsComfort  
Time TempWeatherWind HumidityBarometerVisibility
6:52 pm
Fri, Sep 25
67 °FClear.5 mph90%29.91 "Hg10 mi
5:52 pm71 °FSunny.7 mph81%29.90 "Hg10 mi
4:52 pm73 °FSunny.9 mph76%29.90 "Hg10 mi
3:52 pm74 °FSunny.8 mph71%29.90 "Hg10 mi
2:52 pm75 °FSunny.8 mph69%29.90 "Hg9 mi
1:52 pm75 °FSunny.7 mph69%29.93 "Hg9 mi
12:52 pm75 °FSunny.8 mph66%29.94 "Hg9 mi
11:52 am73 °FSunny.8 mph71%29.95 "Hg7 mi
10:52 am74 °FSunny.9 mph69%29.96 "Hg7 mi
9:52 am72 °FPassing clouds.5 mph73%29.95 "Hg8 mi
9:11 am68 °FFog.No wind87%29.95 "Hg6 mi
8:52 am68 °FLow clouds.No wind87%29.94 "Hg9 mi
7:52 am65 °FOvercast.3 mph94%29.93 "Hg10 mi
6:52 am65 °FOvercast.5 mph97%29.91 "Hg10 mi
5:52 am65 °FOvercast.3 mph100%29.90 "Hg9 mi
5:05 am66 °FFog.No wind96%29.90 "Hg6 mi
4:52 am66 °FFog.No wind96%29.89 "Hg6 mi
3:52 am67 °FLow clouds.No wind97%29.88 "Hg7 mi
2:52 am67 °FFog.No wind100%29.88 "Hg6 mi
1:52 am68 °FFog.No wind96%29.88 "Hg6 mi
12:52 am68 °FFog.No wind96%29.88 "Hg6 mi
11:52 pm
Thu, Sep 24
67 °FFog.No wind100%29.88 "Hg6 mi
10:52 pm68 °FLow clouds.5 mph96%29.88 "Hg7 mi
10:12 pm68 °FLow clouds.5 mph96%29.88 "Hg8 mi
9:52 pm68 °FLow clouds.5 mph96%29.88 "Hg8 mi
8:52 pm67 °FPassing clouds.3 mph100%29.88 "Hg8 mi
8:43 pm66 °FPassing clouds.No wind96%29.88 "Hg7 mi
8:05 pm66 °FPassing clouds.No wind100%29.87 "Hg8 mi
Weather by CustomWeather, © 2020

See weather overview